EW3721 Weather Reports


Display with metric or nautical units.
time (UTC)temp
F
wind
direction
speed
MPH
gust
MPH
rain 1hr
in
rain 24hr
in
rain mn
in
humidity
%
barometer
mb
20190116144111 30 191 1.0 6.0 0.00 0.00 0.00 79 1017.6
20190116143112 30 171 1.0 5.0 0.00 0.00 0.00 79 1017.6
20190116142111 30 167 1.0 2.0 0.00 0.00 0.00 80 1017.4
20190116141111 29 160 1.0 3.0 0.00 0.00 0.00 80 1017.3
20190116140116 29 149 0.0 3.0 0.00 0.00 0.00 81 1017.3
20190116135111 29 178 1.0 5.0 0.00 0.00 0.00 81 1017.3
20190116134111 28 174 1.0 7.0 0.00 0.00 0.00 82 1017.2
20190116133111 27 167 2.0 5.0 0.00 0.00 0.00 84 1017.2
20190116132111 26 178 1.0 5.0 0.00 0.00 0.00 84 1017.1
20190116131111 26 170 1.0 3.0 0.00 0.00 0.00 83 1017.2
20190116130116 26 209 0.0 2.0 0.00 0.00 0.00 83 1017.0
20190116125111 26 172 0.0 1.0 0.00 0.00 0.00 83 1017.2
20190116124111 26 173 0.0 2.0 0.00 0.00 0.00 83 1017.3
20190116123111 26 202 1.0 2.0 0.00 0.00 0.00 83 1017.4
20190116122111 26 165 1.0 2.0 0.00 0.00 0.00 84 1017.4
20190116121110 26 184 0.0 3.0 0.00 0.00 0.00 84 1017.5
20190116120115 26 221 0.0 5.0 0.00 0.00 0.00 85 1017.7
20190116115110 26 218 0.0 3.0 0.00 0.00 0.00 86 1017.4
20190116114110 26 229 0.0 3.0 0.00 0.00 0.00 86 1017.2
20190116113110 26 220 1.0 3.0 0.00 0.00 0.00 87 1017.2
20190116112111 26 185 0.0 1.0 0.00 0.00 0.00 87 1017.3
20190116111111 26 229 0.0 3.0 0.00 0.00 0.00 88 1017.3
20190116110115 26 222 0.0 2.0 0.00 0.00 0.00 88 1017.3
20190116105110 26 213 0.0 1.0 0.00 0.00 0.00 89 1017.1
20190116104111 25 212 0.0 2.0 0.00 0.00 0.00 89 1016.9
20190116103110 25 212 0.0 2.0 0.00 0.00 0.00 90 1016.9
20190116102110 24 212 0.0 2.0 0.00 0.00 0.00 90 1017.1
20190116101110 24 232 0.0 3.0 0.00 0.00 0.00 90 1017.0
20190116100115 23 232 0.0 2.0 0.00 0.00 0.00 89 1017.1
20190116095111 23 236 0.0 2.0 0.00 0.00 0.00 89 1017.1
20190116094110 23 222 0.0 2.0 0.00 0.00 0.00 88 1017.2
20190116093110 24 222 0.0 1.0 0.00 0.00 0.00 89 1017.0
20190116092110 24 222 0.0 1.0 0.00 0.00 0.00 90 1017.2
20190116091111 24 263 0.0 2.0 0.00 0.00 0.00 90 1017.3
20190116090115 24 292 0.0 2.0 0.00 0.00 0.00 91 1017.3
20190116085110 24 289 0.0 0.0 0.00 0.00 0.00 92 1017.6
20190116084111 23 289 0.0 2.0 0.00 0.00 0.00 92 1017.7
20190116083110 22 309 0.0 1.0 0.00 0.00 0.00 93 1017.8
20190116082110 21 268 0.0 0.0 0.00 0.00 0.00 92 1017.9
20190116081110 20 268 0.0 0.0 0.00 0.00 0.00 92 1018.0
20190116080115 20 267 0.0 0.0 0.00 0.00 0.00 92 1018.2
20190116075111 20 265 0.0 1.0 0.00 0.00 0.00 91 1018.3
20190116074109 20 281 0.0 0.0 0.00 0.00 0.00 91 1018.3
20190116073110 20 281 0.0 1.0 0.00 0.00 0.00 91 1018.3
20190116072110 20 280 0.0 0.0 0.00 0.00 0.00 91 1018.3
20190116071110 20 280 0.0 0.0 0.00 0.00 0.00 90 1018.3
20190116070115 20 279 0.0 0.0 0.00 0.00 0.00 90 1018.3
20190116065109 20 279 0.0 0.0 0.00 0.00 0.00 90 1018.4
20190116064110 20 279 0.0 0.0 0.00 0.00 0.00 90 1018.5
20190116063110 20 279 0.0 0.0 0.00 0.00 0.00 90 1018.6
20190116062109 20 279 0.0 0.0 0.00 0.00 0.00 90 1018.6
20190116061109 21 279 0.0 0.0 0.00 0.00 0.00 89 1018.5
20190116060114 21 279 0.0 0.0 0.00 0.00 0.00 89 1018.5
20190116055109 21 279 0.0 0.0 0.00 0.00 0.00 89 1018.8
20190116054109 21 280 0.0 0.0 0.00 0.00 0.00 89 1018.9
20190116053109 21 280 0.0 0.0 0.00 0.00 0.00 89 1019.0
20190116052109 21 280 0.0 0.0 0.00 0.00 0.00 89 1019.0
20190116051109 21 279 0.0 0.0 0.00 0.00 0.00 88 1019.0
20190116050114 21 280 0.0 0.0 0.00 0.00 0.00 88 1019.2
20190116045109 22 279 0.0 0.0 0.00 0.00 0.00 88 1019.3
20190116044109 22 279 0.0 0.0 0.00 0.00 0.00 88 1019.5
20190116043109 22 279 0.0 0.0 0.00 0.00 0.00 88 1019.8
20190116042109 22 280 0.0 0.0 0.00 0.00 0.00 88 1019.9
20190116041109 22 280 0.0 0.0 0.00 0.00 0.00 88 1020.0
20190116040113 22 279 0.0 0.0 0.00 0.00 0.00 87 1020.2
20190116035112 22 279 0.0 0.0 0.00 0.00 0.00 87 1020.2
20190116034109 23 279 0.0 0.0 0.00 0.00 0.00 87 1020.3
20190116033108 23 279 0.0 0.0 0.00 0.00 0.00 87 1020.4
20190116032108 23 281 0.0 0.0 0.00 0.00 0.00 87 1020.4
20190116031109 23 281 0.0 0.0 0.00 0.00 0.00 87 1020.5
20190116030114 23 281 0.0 0.0 0.00 0.00 0.00 86 1020.5
20190116025109 23 281 0.0 0.0 0.00 0.00 0.00 86 1020.5
20190116024109 23 281 0.0 0.0 0.00 0.00 0.00 85 1020.4
20190116023109 24 281 0.0 0.0 0.00 0.00 0.00 85 1020.5
20190116022109 24 281 0.0 0.0 0.00 0.00 0.00 84 1020.6
20190116021108 24 280 0.0 0.0 0.00 0.00 0.00 84 1020.7
20190116020115 24 280 0.0 0.0 0.00 0.00 0.00 83 1020.6
20190116015108 25 281 0.0 0.0 0.00 0.00 0.00 83 1020.5
20190116014109 25 281 0.0 0.0 0.00 0.00 0.00 83 1020.4
20190116013108 25 280 0.0 0.0 0.00 0.00 0.00 83 1020.3
20190116012108 25 280 0.0 0.0 0.00 0.00 0.00 83 1020.4
20190116011109 25 280 0.0 0.0 0.00 0.00 0.00 82 1020.4
20190116010113 25 280 0.0 0.0 0.00 0.00 0.00 82 1020.3
20190116005108 26 279 0.0 0.0 0.00 0.00 0.00 81 1020.3
20190116004109 26 280 0.0 0.0 0.00 0.00 0.00 80 1020.4
20190116003108 26 280 0.0 0.0 0.00 0.00 0.00 79 1020.4
20190116002108 27 281 0.0 0.0 0.00 0.00 0.00 78 1020.5
20190116001111 27 281 0.0 0.0 0.00 0.00 0.00 77 1020.5
20190116000112 27 281 0.0 0.0 0.00 0.00 0.00 76 1020.5
20190115235108 28 281 0.0 0.0 0.00 0.00 0.00 75 1020.5
20190115234108 28 281 0.0 2.0 0.00 0.00 0.00 74 1020.6
20190115233108 28 312 0.0 2.0 0.00 0.00 0.00 74 1020.6
20190115232107 29 309 0.0 2.0 0.00 0.00 0.00 73 1020.5
20190115231107 29 318 0.0 0.0 0.00 0.00 0.00 72 1020.4
20190115230113 29 318 0.0 2.0 0.00 0.00 0.00 71 1020.4
20190115225108 30 319 0.0 0.0 0.00 0.00 0.00 70 1020.3
20190115224107 30 319 0.0 1.0 0.00 0.00 0.00 69 1020.3
20190115223111 31 311 0.0 0.0 0.00 0.00 0.00 68 1020.2
20190115222108 31 311 0.0 2.0 0.00 0.00 0.00 67 1020.1
20190115221108 32 261 0.0 2.0 0.00 0.00 0.00 66 1020.1
20190115220112 32 355 1.0 3.0 0.00 0.00 0.00 65 1020.0
20190115215107 33 281 1.0 3.0 0.00 0.00 0.00 65 1020.0
20190115214107 33 12 2.0 9.0 0.00 0.00 0.00 64 1019.9
20190115213107 33 66 1.0 8.0 0.00 0.00 0.00 63 1019.9
20190115212107 34 274 0.0 3.0 0.00 0.00 0.00 62 1019.8
20190115211107 34 0 1.0 5.0 0.00 0.00 0.00 61 1019.7
20190115210112 34 355 0.0 8.0 0.00 0.00 0.00 60 1019.6
20190115205107 35 82 2.0 9.0 0.00 0.00 0.00 60 1019.6
20190115204107 35 192 2.0 7.0 0.00 0.00 0.00 59 1019.6
20190115203107 36 343 2.0 7.0 0.00 0.00 0.00 58 1019.5
20190115202107 36 57 1.0 6.0 0.00 0.00 0.00 57 1019.5
20190115201107 36 64 0.0 6.0 0.00 0.00 0.00 56 1019.4
20190115200112 36 242 0.0 3.0 0.00 0.00 0.00 56 1019.5
20190115195107 36 261 2.0 7.0 0.00 0.00 0.00 56 1019.4
20190115194107 36 277 3.0 7.0 0.00 0.00 0.00 56 1019.4
20190115193107 36 229 1.0 8.0 0.00 0.00 0.00 55 1019.4
20190115192107 36 256 2.0 7.0 0.00 0.00 0.00 55 1019.4
20190115191107 36 310 2.0 7.0 0.00 0.00 0.00 55 1019.3
20190115190112 36 91 2.0 12.0 0.00 0.00 0.00 55 1019.5
20190115185107 36 56 1.0 9.0 0.00 0.00 0.00 56 1019.5
20190115184106 35 266 5.0 12.0 0.00 0.00 0.00 57 1019.5
20190115183107 35 302 6.0 13.0 0.00 0.00 0.00 55 1019.7
20190115182106 35 33 4.0 9.0 0.00 0.00 0.00 56 1019.5
20190115181107 35 254 3.0 9.0 0.00 0.00 0.00 56 1019.6
20190115180112 35 225 4.0 12.0 0.00 0.00 0.00 56 1019.6
20190115175106 35 121 2.0 13.0 0.00 0.00 0.00 56 1019.7
20190115174107 35 22 4.0 9.0 0.00 0.00 0.00 57 1019.8
20190115173107 35 36 7.0 12.0 0.00 0.00 0.00 57 1019.9
20190115172106 34 186 3.0 7.0 0.00 0.00 0.00 59 1020.1
20190115171106 34 308 1.0 10.0 0.00 0.00 0.00 57 1020.3
20190115170111 35 99 1.0 9.0 0.00 0.00 0.00 57 1020.4
20190115165106 35 238 1.0 9.0 0.00 0.00 0.00 56 1020.4
20190115164106 34 301 3.0 8.0 0.00 0.00 0.00 57 1020.8
20190115163107 33 246 2.0 10.0 0.00 0.00 0.00 57 1021.0
20190115162106 33 80 4.0 12.0 0.00 0.00 0.00 56 1021.2
20190115161106 33 99 5.0 12.0 0.00 0.00 0.00 56 1021.4
20190115160111 32 86 5.0 12.0 0.00 0.00 0.00 57 1021.4
20190115155106 32 84 2.0 10.0 0.00 0.00 0.00 58 1021.6
20190115154106 31 252 2.0 12.0 0.00 0.00 0.00 59 1021.7
20190115153106 30 307 5.0 12.0 0.00 0.00 0.00 58 1021.7
20190115152106 30 271 3.0 9.0 0.00 0.00 0.00 59 1021.7
20190115151105 29 272 0.0 10.0 0.00 0.00 0.00 59 1021.7
20190115150110 29 294 5.0 10.0 0.00 0.00 0.00 60 1021.7
20190115145106 28 126 1.0 9.0 0.00 0.00 0.00 62 1021.7